Total_Precipitation_Accumulation
0.00 0.00 0.00 0.00 0.00 0.00 0.00 0.00 0.00 0.00 0.00 0.00 0.00 0.00 0.00 0.00 0.00 0.00 0.00 0.00 0.00 0.00 0.00 0.00 0.00 0.00 0.00 0.00 0.00 0.00 0.00 0.00 0.00 0.00 0.00 0.00 0.00 0.00 0.00 0.00 0.00 0.00 0.00 0.00 0.00 0.00 0.00
0.04 0.01 0.00 0.00 0.00 0.00 0.00 0.00 0.00 0.00 0.00 0.00 0.00 0.00 0.00 0.00 0.00 0.00 0.00 0.00 0.00 0.00 0.00 0.00 0.00 0.00 0.00 0.00 0.00 0.00 0.00 0.00 0.00 0.00 0.00 0.00 0.00 0.00 0.00 0.00 0.00 0.00 0.00 0.00 0.00 0.00 0.00
0.31 0.15 0.07 0.03 0.00 0.00 0.00 0.00 0.00 0.00 0.00 0.00 0.00 0.00 0.00 0.00 0.00 0.00 0.00 0.00 0.00 0.00 0.00 0.00 0.00 0.00 0.00 0.00 0.00 0.00 0.00 0.00 0.00 0.00 0.00 0.00 0.00 0.00 0.00 0.00 0.00 0.00 0.00 0.00 0.00 0.00 0.00
0.51 0.43 0.28 0.19 0.12 0.04 0.01 0.00 0.00 0.00 0.00 0.00 0.00 0.00 0.00 0.00 0.00 0.00 0.00 0.00 0.00 0.00 0.00 0.00 0.00 0.00 0.00 0.00 0.00 0.00 0.00 0.00 0.00 0.00 0.00 0.00 0.00 0.00 0.00 0.00 0.00 0.00 0.00 0.00 0.00 0.00 0.00
0.55 0.64 0.58 0.49 0.40 0.30 0.19 0.11 0.06 0.03 0.02 0.01 0.00 0.00 0.00 0.00 0.00 0.00 0.00 0.00 0.00 0.00 0.00 0.00 0.00 0.00 0.00 0.00 0.00 0.00 0.00 0.00 0.00 0.00 0.00 0.00 0.00 0.00 0.00 0.00 0.00 0.00 0.00 0.00 0.00 0.00 0.00
0.21 0.42 0.67 0.82 0.85 0.79 0.75 0.58 0.38 0.22 0.12 0.07 0.05 0.04 0.03 0.02 0.02 0.01 0.01 0.00 0.00 0.00 0.00 0.00 0.00 0.00 0.00 0.00 0.00 0.00 0.00 0.00 0.00 0.00 0.00 0.00 0.00 0.00 0.00 0.00 0.00 0.00 0.00 0.00 0.00 0.00 0.00
0.08 0.13 0.15 0.24 0.37 0.55 0.63 0.62 0.54 0.39 0.27 0.16 0.10 0.07 0.05 0.06 0.06 0.04 0.02 0.01 0.01 0.00 0.00 0.00 0.00 0.00 0.00 0.00 0.00 0.00 0.00 0.00 0.00 0.00 0.00 0.00 0.00 0.00 0.00 0.00 0.00 0.00 0.00 0.00 0.00 0.00 0.00
0.05 0.08 0.11 0.11 0.12 0.18 0.28 0.34 0.34 0.27 0.20 0.20 0.18 0.13 0.05 0.03 0.02 0.03 0.03 0.03 0.02 0.00 0.00 0.00 0.00 0.00 0.00 0.00 0.00 0.00 0.00 0.00 0.00 0.00 0.00 0.00 0.00 0.00 0.00 0.00 0.00 0.00 0.00 0.00 0.00 0.00 0.00
0.20 0.17 0.10 0.09 0.12 0.10 0.09 0.09 0.10 0.12 0.11 0.08 0.06 0.07 0.06 0.05 0.05 0.02 0.01 0.01 0.00 0.00 0.01 0.00 0.00 0.00 0.00 0.00 0.00 0.00 0.00 0.00 0.00 0.00 0.00 0.00 0.00 0.00 0.00 0.00 0.00 0.00 0.00 0.00 0.00 0.00 0.00
0.26 0.29 0.35 0.34 0.23 0.16 0.13 0.09 0.07 0.09 0.11 0.11 0.08 0.07 0.06 0.04 0.02 0.01 0.05 0.03 0.03 0.03 0.12 0.01 0.00 0.00 0.00 0.00 0.00 0.00 0.00 0.00 0.00 0.00 0.00 0.00 0.00 0.00 0.00 0.00 0.00 0.00 0.00 0.00 0.00 0.00 0.00
0.16 0.19 0.23 0.28 0.37 0.43 0.27 0.21 0.17 0.14 0.14 0.16 0.15 0.12 0.08 0.05 0.02 0.00 0.00 0.00 0.01 0.07 0.18 0.00 0.00 0.00 0.00 0.00 0.00 0.00 0.00 0.00 0.00 0.00 0.00 0.00 0.00 0.00 0.00 0.00 0.00 0.00 0.00 0.00 0.00 0.00 0.00
0.21 0.20 0.15 0.15 0.25 0.43 0.47 0.40 0.31 0.27 0.23 0.20 0.18 0.17 0.17 0.14 0.08 0.02 0.01 0.01 0.10 0.32 0.13 0.00 0.00 0.00 0.00 0.00 0.00 0.00 0.00 0.00 0.00 0.00 0.00 0.00 0.00 0.00 0.00 0.00 0.00 0.00 0.00 0.00 0.00 0.00 0.00
0.31 0.27 0.21 0.16 0.15 0.28 0.43 0.36 0.42 0.36 0.32 0.27 0.18 0.15 0.14 0.11 0.12 0.12 0.19 0.36 0.75 0.53 0.01 0.00 0.00 0.00 0.00 0.00 0.00 0.00 0.00 0.00 0.00 0.00 0.00 0.00 0.00 0.00 0.00 0.00 0.00 0.00 0.00 0.00 0.00 0.00 0.00
0.30 0.32 0.28 0.25 0.19 0.18 0.26 0.33 0.34 0.46 0.41 0.35 0.24 0.17 0.11 0.05 0.03 0.10 0.27 0.66 0.79 0.10 0.00 0.01 0.00 0.00 0.00 0.00 0.00 0.00 0.00 0.00 0.00 0.00 0.00 0.00 0.00 0.00 0.00 0.00 0.00 0.00 0.00 0.00 0.00 0.00 0.00
0.08 0.26 0.31 0.27 0.34 0.33 0.21 0.20 0.26 0.34 0.64 0.51 0.52 0.34 0.12 0.02 0.01 0.06 0.24 0.58 0.20 0.00 0.00 0.06 0.01 0.00 0.00 0.00 0.00 0.00 0.00 0.00 0.00 0.00 0.00 0.00 0.00 0.00 0.00 0.00 0.00 0.00 0.00 0.00 0.00 0.01 0.00
0.00 0.01 0.15 0.23 0.30 0.33 0.29 0.22 0.18 0.18 0.40 0.85 0.87 0.56 0.25 0.08 0.03 0.10 0.33 0.18 0.00 0.00 0.01 0.00 0.01 0.00 0.00 0.00 0.00 0.00 0.00 0.00 0.00 0.00 0.00 0.00 0.00 0.00 0.00 0.00 0.00 0.00 0.00 0.00 0.04 0.08 0.01
0.00 0.00 0.00 0.02 0.09 0.17 0.22 0.18 0.08 0.12 0.22 0.89 1.12 0.93 0.49 0.39 0.33 0.44 0.30 0.02 0.00 0.00 0.01 0.00 0.00 0.00 0.00 0.00 0.00 0.00 0.00 0.00 0.00 0.00 0.00 0.00 0.00 0.00 0.00 0.00 0.00 0.00 0.00 0.00 0.01 0.03 0.04
0.00 0.00 0.00 0.00 0.00 0.01 0.05 0.09 0.13 0.05 0.11 0.39 0.72 0.85 0.45 0.61 0.97 0.89 0.18 0.01 0.00 0.00 0.00 0.00 0.00 0.00 0.00 0.00 0.00 0.00 0.00 0.00 0.00 0.00 0.00 0.00 0.00 0.00 0.00 0.00 0.00 0.00 0.00 0.00 0.00 0.00 0.01
0.00 0.00 0.00 0.00 0.00 0.00 0.00 0.00 0.04 0.06 0.10 0.28 0.67 0.80 0.55 0.86 1.03 0.54 0.09 0.01 0.01 0.00 0.00 0.00 0.00 0.00 0.00 0.00 0.00 0.00 0.00 0.00 0.00 0.00 0.00 0.00 0.00 0.01 0.03 0.03 0.01 0.00 0.00 0.00 0.00 0.00 0.00
0.00 0.00 0.00 0.00 0.00 0.00 0.00 0.00 0.00 0.01 0.04 0.22 0.39 0.41 0.49 0.72 0.81 0.54 0.34 0.31 0.19 0.02 0.01 0.00 0.00 0.00 0.00 0.00 0.00 0.00 0.00 0.00 0.00 0.00 0.00 0.00 0.01 0.04 0.09 0.18 0.17 0.13 0.06 0.05 0.09 0.16 0.13
0.00 0.00 0.00 0.00 0.00 0.00 0.00 0.00 0.00 0.00 0.00 0.06 0.19 0.17 0.11 0.31 0.38 0.39 0.42 0.46 0.31 0.24 0.16 0.06 0.08 0.00 0.01 0.02 0.01 0.00 0.00 0.00 0.00 0.00 0.00 0.00 0.00 0.01 0.03 0.04 0.04 0.05 0.04 0.03 0.04 0.04 0.13
0.00 0.00 0.00 0.00 0.00 0.00 0.00 0.00 0.00 0.00 0.01 0.08 0.05 0.05 0.13 0.16 0.12 0.25 0.46 0.38 0.26 0.30 0.35 0.26 0.23 0.09 0.05 0.06 0.10 0.09 0.07 0.04 0.03 0.01 0.00 0.00 0.00 0.00 0.00 0.00 0.02 0.02 0.00 0.00 0.00 0.00 0.00
0.00 0.00 0.00 0.00 0.00 0.00 0.00 0.00 0.00 0.00 0.01 0.04 0.09 0.04 0.09 0.17 0.18 0.20 0.11 0.06 0.07 0.17 0.23 0.15 0.28 0.21 0.10 0.23 0.17 0.15 0.12 0.04 0.02 0.03 0.05 0.05 0.02 0.02 0.02 0.00 0.01 0.06 0.00 0.00 0.00 0.00 0.00
0.01 0.01 0.00 0.00 0.00 0.00 0.00 0.00 0.00 0.00 0.01 0.01 0.02 0.05 0.09 0.04 0.04 0.10 0.09 0.07 0.07 0.07 0.17 0.05 0.08 0.21 0.11 0.05 0.04 0.01 0.01 0.00 0.00 0.00 0.02 0.07 0.09 0.10 0.06 0.04 0.13 0.02 0.00 0.00 0.00 0.00 0.00
0.00 0.01 0.01 0.01 0.00 0.00 0.00 0.00 0.00 0.01 0.01 0.01 0.02 0.02 0.03 0.01 0.00 0.00 0.01 0.04 0.03 0.03 0.04 0.03 0.02 0.05 0.08 0.13 0.13 0.08 0.04 0.07 0.01 0.00 0.00 0.00 0.04 0.16 0.16 0.09 0.04 0.00 0.00 0.00 0.00 0.00 0.00
0.00 0.01 0.01 0.01 0.01 0.01 0.00 0.00 0.00 0.00 0.03 0.02 0.01 0.01 0.04 0.02 0.00 0.00 0.00 0.00 0.00 0.01 0.01 0.01 0.00 0.01 0.09 0.23 0.28 0.23 0.11 0.09 0.05 0.01 0.00 0.00 0.01 0.11 0.13 0.14 0.05 0.00 0.00 0.00 0.01 0.03 0.00
0.00 0.00 0.01 0.01 0.02 0.02 0.02 0.00 0.00 0.00 0.01 0.04 0.04 0.02 0.03 0.04 0.00 0.00 0.00 0.00 0.00 0.00 0.02 0.03 0.06 0.08 0.07 0.26 0.33 0.16 0.07 0.03 0.05 0.06 0.03 0.03 0.04 0.08 0.06 0.10 0.02 0.00 0.00 0.00 0.01 0.01 0.00
0.03 0.00 0.00 0.01 0.01 0.02 0.02 0.01 0.00 0.00 0.02 0.04 0.06 0.04 0.06 0.04 0.00 0.00 0.00 0.00 0.00 0.00 0.01 0.01 0.10 0.20 0.30 0.32 0.24 0.22 0.13 0.02 0.03 0.02 0.03 0.05 0.12 0.12 0.07 0.12 0.07 0.00 0.00 0.01 0.01 0.00 0.00
0.08 0.04 0.02 0.00 0.00 0.01 0.02 0.02 0.01 0.00 0.01 0.05 0.04 0.06 0.06 0.09 0.02 0.01 0.00 0.00 0.00 0.00 0.00 0.01 0.05 0.09 0.24 0.31 0.32 0.28 0.25 0.16 0.08 0.07 0.01 0.05 0.05 0.09 0.10 0.06 0.00 0.00 0.00 0.00 0.00 0.00 0.00